Weather in Archib

Russia / Republic of Dagestan     42°03′54″N   46°52′10″E
temp.,
°C
wind,
m/s
gust,
m/s
humid.,
%
clouds,
%
prec.,
mm/h
press.,
hPa
HPBL,
m
15 may, sat
sat1500:00+1ssw449896 0.0 102357
03:000ssw339894 0.0 102375
06:00+1s32847 0.0 102222
09:00+6sw11700 0.0 1020291
12:00+8nw122617 0.1 10181794
15:00+9n225965 1.7 10181097
18:00+7ne117652 2.3 101928
21:00+2ssw2291100 3.1 102111
16 may, sun
sun1600:00+2ssw3399100 0.0 102187
03:00+1ssw339622 0.0 102046
06:00+3ssw44814 0.0 101990
09:00+7ssw44455 0.0 1017600
12:00+9ssw44410 0.0 1016924
15:00+9ssw44390 0.0 1015897
18:00+6ssw44501 0.0 1017327
21:00+2ssw55500 0.0 101946
17 may, mon
mon1700:00+1ssw54516 0.0 101937
03:00+3ssw545311 0.0 101628
06:00+5ssw4457100 0.0 101676
09:00+10sw4440100 0.0 10141023
12:00+11sw473423 0.0 10141852
15:00+11sw47310 0.0 10141832
18:00+9sw334295 0.0 101467
21:00+4ssw4472100 0.0 101835
18 may, tue
tue1800:00+6s4453100 0.0 101533
03:00+4s54576 0.0 101529
06:00+6s44595 0.1 101470
09:00+9s711538 1.9 10121667
12:00+7ssw6876100 3.3 1015885
15:00+8sw595210 5.2 10131488
18:00+6sw336899 1.4 1016449
21:00+1sse4498100 6.6 1020111
19 may, wed
wed1900:00+2ssw228093 0.1 101819
03:00−1e11904 0.1 101910
06:00+2ene22851 0.0 1020114
09:00+6ne21625 0.0 1019811
12:00+10n225011 0.0 10181626
15:00+10wnw226179 0.2 10171155
18:00+7wsw118676 0.1 1020308
21:00+6ssw228510 0.2 102257